sat.trackr.live / text

‹ back to catalog

HULIANWANG DIGUI-52

NORAD 65109 · 2025-168D

PAYLOAD ACTIVE UNKNOWN

§ Identity

Operator
Country
PRC
Launch date
2025-08-04
Launch site
WSC
Launch vehicle
Mass (kg)
RCS (m²)

External: N2YO · Heavens-Above · Gunter

§ Orbital elements

Epoch: 2026-05-25T03:08:55.755168Z

Period
108.33 min
Inclination
50.0042°
Eccentricity
0.0010688
Mean motion
13.29318237 rev/d
Perigee alt
1,141.3 km
Apogee alt
1,157.4 km
Semi-major
7,527.5 km
B*
8.4549e-5
RAAN
48.4307°
Arg perigee
32.5434°
Mean anomaly
327.6095°
Rev number
3,962

§ Raw data

HULIANWANG DIGUI-521 65109U 25168D   26145.13120087 -.00000085  00000+0  84549-4 0  99902 65109  50.0042  48.4307 0010688  32.5434 327.6095 13.29318237 39625

JSON: /api/v1/satellites/65109 · /tle

For live sub-satellite position, see the globe view (requires WebGL).

§ Visibility from observer

Set your observer location to see the next 7 days of passes ≥ 10°. The values pass through the URL so the page stays shareable.

No JS? Fill the form by hand. The geolocation button needs JavaScript.